Location: Kershaw
(34.5481°N, 80.5823°W)
Time: 09:56:16
(UTC+00:00)

Altair - Pass Details

Date: 10 October 2022
Orbit: 1501 x 1682 km, 47.2° (Epoch: 30 November)

Event Time Altitude Azimuth Distance (km) Brightness Sun altitude
Rises 07:26:18 0° 225° (SW) 4,666 - -47.9°
Reaches altitude 10° 07:29:18 10° 224° (SW) 3,704 - -47.4°
Maximum altitude 07:38:40 77° 140° (SE) 1,616 - -45.8°
Exits shadow 07:41:29 52° 68° (ENE) 1,920 8.0 -45.3°
Drops below altitude 10° 07:48:27 10° 56° (ENE) 3,858 10.2 -44.0°
Sets 07:51:38 0° 56° (NE) 4,869 10.9 -43.4°
